Linden, NJ

4:11 PM EDT on September 29, 2016 (GMT -0400)
Linden

Weather History for KLDJ - February, 2014

Change the Weather History Date:

Saturday, February 15, 2014

  Actual Average (KEWR) Record (KEWR)
Temperature  
Mean Temperature 33 °F 35 °F  
Max Temperature 38 °F 42 °F 76 °F (1949)
Min Temperature 28 °F 27 °F -7 °F (1943)
Degree Days  
Heating Degree Days 32 30  
Month to date heating degree days 475  
Since 1 July heating degree days 3259  
Cooling Degree Days 0 0  
Month to date cooling degree days 0  
Year to date cooling degree days 0  
Moisture  
Dew Point 28 °F    
Average Humidity 79    
Maximum Humidity 93    
Minimum Humidity 60    
Precipitation  
Precipitation 0.11 in 0.10 in 1.65 in (1984)
Month to date precipitation 1.50  
Year to date precipitation 5.04  
Snow  
Snow 0.00 in 0.40 in 4.20 in (1958)
Month to date snowfall 5.1  
Since 1 July snowfall 18.8  
Snow Depth -    
Sea Level Pressure  
Sea Level Pressure 29.72 in    
Wind  
Wind Speed 6 mph (NNE)    
Max Wind Speed 24 mph    
Max Gust Speed 39 mph    
Visibility 7 miles    
Events Snow    
T = Trace of Precipitation, MM = Missing Value Source: NWS Daily Summary

Daily Weather History Graph

Daily Weather History Graph

Search for Another Location

Airport or City:

Trip Planner

Search our weather history database for the weather conditions in past years. The results will help you decide how hot, cold, wet, or windy it might be!

Date:

Astronomy

Feb. 15, 2014 Rise Set
Actual Time 6:50 AM EST 5:32 PM EST
Civil Twilight 6:22 AM EST 6:00 PM EST
Nautical Twilight 5:50 AM EST 6:32 PM EST
Astronomical Twilight 5:19 AM EST 7:03 PM EST
Moon 6:30 PM EST (2/15) 6:47 AM EST (2/15)
Length of Visible Light 11h 37m
Length of Day
10h 41m
Full, 100% of the Moon is Illuminated
Feb 15
Full
Feb 22
Last Quarter
Mar 1
New
Mar 8
First Quarter
Mar 16
Full

Hourly Weather History & Observations

Time (EST) Temp. Windchill Dew Point Humidity Pressure Visibility Wind Dir Wind Speed Gust Speed Precip Events Conditions
12:15 AM 30.7 °F - 25.0 °F 79% 29.81 in 10.0 mi Calm Calm - N/A   Overcast
12:35 AM 31.8 °F - 25.5 °F 78% 29.81 in 10.0 mi Calm Calm - N/A   Overcast
12:55 AM 31.8 °F - 26.4 °F 80% 29.81 in 10.0 mi Calm Calm - N/A   Overcast
1:15 AM 31.1 °F - 26.6 °F 83% 29.81 in 10.0 mi Calm Calm - N/A   Overcast
1:35 AM 32.0 °F - 26.8 °F 81% 29.81 in 10.0 mi Calm Calm - N/A   Mostly Cloudy
1:55 AM 32.0 °F - 26.6 °F 80% 29.81 in 10.0 mi Calm Calm - N/A   Overcast
2:15 AM 32.0 °F - 26.8 °F 81% 29.81 in 10.0 mi Calm Calm - N/A   Overcast
2:35 AM 32.0 °F - 27.3 °F 83% 29.80 in 10.0 mi Calm Calm - N/A   Overcast
2:55 AM 32.9 °F - 27.3 °F 80% 29.80 in 10.0 mi Calm Calm - N/A   Overcast
3:15 AM 32.4 °F - 27.3 °F 82% 29.80 in 10.0 mi Calm Calm - N/A   Overcast
3:35 AM 32.4 °F - 27.5 °F 82% 29.80 in 10.0 mi Calm Calm - N/A   Mostly Cloudy
3:55 AM 32.0 °F - 27.3 °F 83% 29.79 in 10.0 mi Calm Calm - N/A   Scattered Clouds
4:15 AM 32.4 °F - 27.9 °F 83% 29.79 in 10.0 mi Calm Calm - N/A   Mostly Cloudy
4:35 AM 32.9 °F - 27.9 °F 82% 29.80 in 10.0 mi Calm Calm - N/A   Overcast
4:55 AM 32.2 °F - 27.7 °F 83% 29.79 in 10.0 mi Calm Calm - N/A   Overcast
5:15 AM 32.0 °F - 28.4 °F 87% 29.78 in 10.0 mi Calm Calm - N/A   Overcast
5:35 AM 33.1 °F 30.0 °F 27.9 °F 81% 29.78 in 10.0 mi East 3.5 mph - N/A   Overcast
5:55 AM 34.3 °F - 27.5 °F 76% 29.78 in 10.0 mi Calm Calm - N/A   Overcast
6:15 AM 34.3 °F 31.4 °F 27.5 °F 76% 29.77 in 10.0 mi ENE 3.5 mph - N/A   Overcast
6:35 AM 34.7 °F - 27.3 °F 74% 29.77 in 10.0 mi Calm Calm - N/A   Overcast
6:55 AM 35.6 °F 29.2 °F 27.5 °F 72% 29.76 in 10.0 mi East 8.1 mph - N/A   Overcast
7:15 AM 35.8 °F 28.3 °F 27.1 °F 71% 29.76 in 10.0 mi East 10.4 mph - N/A   Mostly Cloudy
7:35 AM 36.0 °F 28.5 °F 27.5 °F 71% 29.75 in 10.0 mi East 10.4 mph - N/A   Overcast
7:55 AM 36.5 °F 30.3 °F 27.5 °F 70% 29.76 in 10.0 mi East 8.1 mph - N/A   Overcast
8:15 AM 36.9 °F 30.7 °F 28.2 °F 71% 29.76 in 10.0 mi East 8.1 mph - N/A   Overcast
8:35 AM 37.8 °F 33.3 °F 27.9 °F 67% 29.77 in 10.0 mi ESE 5.8 mph - N/A   Overcast
8:55 AM 38.7 °F 31.8 °F 26.8 °F 62% 29.77 in 10.0 mi ESE 10.4 mph - N/A   Mostly Cloudy
9:15 AM 38.3 °F 31.9 °F 26.6 °F 63% 29.75 in 10.0 mi East 9.2 mph - N/A   Mostly Cloudy
9:35 AM 38.3 °F 30.9 °F 25.7 °F 61% 29.75 in 10.0 mi East 11.5 mph - N/A   Overcast
9:55 AM 37.9 °F 30.9 °F 26.4 °F 63% 29.75 in 10.0 mi East 10.4 mph - N/A   Overcast
10:15 AM 37.9 °F 30.9 °F 27.0 °F 65% 29.73 in 10.0 mi East 10.4 mph 20.7 mph N/A   Overcast
10:35 AM 37.6 °F 29.1 °F 27.9 °F 68% 29.73 in 7.0 mi East 13.8 mph - N/A Snow Light Snow
10:55 AM 37.6 °F 28.8 °F 28.4 °F 69% 29.73 in 4.0 mi East 15.0 mph - N/A Snow Light Snow
11:15 AM 36.3 °F 27.1 °F 30.2 °F 78% 29.71 in 2.0 mi East 15.0 mph 19.6 mph N/A Snow Light Snow
11:35 AM 35.6 °F 27.1 °F 31.1 °F 84% 29.70 in 1.5 mi ENE 12.7 mph - N/A Snow Light Snow
11:55 AM 34.7 °F 26.9 °F 31.6 °F 89% 29.68 in 1.0 mi ENE 10.4 mph 16.1 mph N/A Snow Light Snow
12:15 PM 34.2 °F 25.7 °F 32.0 °F 92% 29.66 in 1.0 mi NE 11.5 mph 17.3 mph N/A Snow Light Snow
12:35 PM 34.0 °F 27.2 °F 32.0 °F 92% 29.65 in 1.2 mi NE 8.1 mph 17.3 mph N/A Snow Light Snow
12:55 PM 33.8 °F 26.4 °F 31.8 °F 92% 29.65 in 2.5 mi NNE 9.2 mph 16.1 mph N/A Snow Light Snow
1:15 PM 34.2 °F 26.2 °F 31.6 °F 90% 29.63 in 3.0 mi NNE 10.4 mph 19.6 mph N/A   Overcast
1:35 PM 34.3 °F 26.5 °F 31.6 °F 90% 29.61 in 3.0 mi NNE 10.4 mph 17.3 mph N/A   Overcast
1:55 PM 34.7 °F 26.9 °F 31.1 °F 87% 29.60 in 5.0 mi NNE 10.4 mph 17.3 mph N/A   Overcast
2:15 PM 34.9 °F 26.6 °F 31.1 °F 86% 29.60 in 5.0 mi NNE 11.5 mph 18.4 mph N/A Snow Light Snow
2:35 PM 35.1 °F 28.6 °F 30.9 °F 85% 29.61 in 7.0 mi NNE 8.1 mph 18.4 mph N/A Snow Light Snow
2:55 PM 35.2 °F 27.1 °F 30.2 °F 82% 29.63 in 10.0 mi NNE 11.5 mph 18.4 mph N/A Snow Light Snow
3:15 PM 35.1 °F 25.2 °F 30.2 °F 82% 29.63 in 4.0 mi North 16.1 mph 21.9 mph N/A Snow Light Snow
3:35 PM 34.5 °F 25.7 °F 29.8 °F 83% 29.62 in 3.0 mi North 12.7 mph 20.7 mph N/A Snow Light Snow
3:55 PM 34.0 °F 24.6 °F 30.2 °F 86% 29.61 in 1.2 mi North 13.8 mph 18.4 mph 0.01 in   Overcast
4:15 PM 32.9 °F 24.7 °F 30.2 °F 90% 29.63 in 0.8 mi North 10.4 mph 18.4 mph 0.01 in Snow Light Snow
4:35 PM 32.5 °F 23.2 °F 30.6 °F 92% 29.62 in 0.8 mi North 12.7 mph 19.6 mph 0.03 in Snow Snow
4:55 PM 32.5 °F 22.3 °F 30.7 °F 93% 29.64 in 0.5 mi North 15.0 mph 20.7 mph 0.06 in Snow Snow
5:15 PM 32.9 °F 23.7 °F 31.1 °F 93% 29.65 in 0.8 mi North 12.7 mph 17.3 mph 0.01 in Snow Light Snow
5:35 PM 33.1 °F 24.9 °F 31.1 °F 92% 29.66 in 1.8 mi North 10.4 mph - 0.02 in Snow Light Snow
5:55 PM 33.3 °F 24.1 °F 31.1 °F 92% 29.66 in 2.0 mi North 12.7 mph 18.4 mph 0.02 in Snow Light Snow
6:15 PM 33.1 °F 25.5 °F 31.1 °F 92% 29.67 in 1.8 mi North 9.2 mph 16.1 mph 0.01 in Snow Light Snow
6:35 PM 33.1 °F 25.5 °F 31.1 °F 92% 29.67 in 2.0 mi North 9.2 mph - 0.02 in Snow Light Snow
6:55 PM 33.1 °F 25.5 °F 31.1 °F 92% 29.68 in 3.0 mi North 9.2 mph 17.3 mph 0.02 in Snow Light Snow
7:15 PM 33.1 °F 26.1 °F 30.9 °F 92% 29.68 in 4.0 mi North 8.1 mph - N/A   Mostly Cloudy
7:35 PM 32.9 °F 26.7 °F 30.7 °F 92% 29.68 in 4.0 mi NNW 6.9 mph - N/A Snow Light Snow
7:55 PM 32.9 °F 25.9 °F 31.1 °F 93% 29.68 in 5.0 mi NNW 8.1 mph - N/A Snow Light Snow
8:15 PM 33.8 °F 25.8 °F 30.0 °F 86% 29.68 in 10.0 mi NNW 10.4 mph 19.6 mph N/A   Overcast
8:35 PM 34.0 °F 23.8 °F 26.8 °F 75% 29.69 in 10.0 mi NNW 16.1 mph 23.0 mph N/A   Overcast
8:55 PM 33.4 °F 22.0 °F 24.8 °F 71% 29.69 in 7.0 mi NNW 19.6 mph 26.5 mph N/A   Mostly Cloudy
9:15 PM 32.9 °F 24.1 °F 23.7 °F 69% 29.70 in 7.0 mi NNW 11.5 mph 23.0 mph N/A   Scattered Clouds
9:35 PM 32.9 °F 25.9 °F 23.2 °F 67% 29.71 in 10.0 mi NNW 8.1 mph - N/A   Scattered Clouds
9:55 PM 32.0 °F 19.2 °F 21.9 °F 66% 29.72 in 5.0 mi NW 23.0 mph 39.1 mph N/A   Haze
10:15 PM 31.6 °F 19.0 °F 20.8 °F 64% 29.74 in 7.0 mi NW 21.9 mph 28.8 mph N/A   Clear
10:35 PM 30.2 °F 18.1 °F 19.4 °F 64% 29.75 in 4.0 mi NNW 18.4 mph 31.1 mph N/A   Haze
10:55 PM 29.3 °F 17.3 °F 17.8 °F 62% 29.77 in 7.0 mi NW 17.3 mph 31.1 mph N/A   Clear
11:15 PM 28.4 °F 14.1 °F 17.2 °F 63% 29.78 in 5.0 mi NW 24.2 mph 35.7 mph N/A   Haze
11:35 PM 28.2 °F 14.8 °F 16.5 °F 62% 29.79 in 7.0 mi NW 20.7 mph 31.1 mph N/A   Clear
11:55 PM 28.0 °F 16.5 °F 15.8 °F 60% 29.80 in 7.0 mi NW 15.0 mph 28.8 mph N/A   Clear